Home   Weather   Chicago   Past weeks
Flag for USA

Past Weather in Chicago, Illinois, USA — March 2017

Now
80 °F

Passing clouds.


Feels Like: 84 °F
Forecast: 89 / 77 °F
Wind: 5 mph from East

Location: Chicago Midway Airport

Current Time: Jul 17, 2019 at 9:44:50 pm

Latest Report: Jul 17, 2019 at 8:53 pm


Visibility: 10 mi

Pressure: 29.83 "Hg

Humidity: 76%

Dew Point: 72 °F

Location of ChicagoLocation

March 2017 Weather in Chicago — Graph

°F

High & Low Weather Summary for March 2017

 TemperatureHumidityPressure
High81 °F (Mar 24, 2:53 pm)100% (Mar 26, 3:34 am)30.65 "Hg (Mar 26, 3:34 am)
Low17 °F (Mar 15, 6:53 am)19% (Mar 12, 1:53 pm)29.41 "Hg (Mar 1, 2:53 am)
Average40 °F67%30.15 "Hg
* Reported Mar 1 12:53 am — Mar 31 11:53 pm, Chicago. Weather by CustomWeather, © 2019

Note: Actual official high and low records may vary slightly from our data, if they occured in-between our weather recording intervals... More about our weather records

Advertising

Chicago Weather History for March 1, 2017

Scroll right to see more
 ConditionsComfort  
Time TempWeatherWind HumidityBarometerVisibility
12:53 am
Wed, Mar 1
53 °FMostly cloudy.5 mph93%29.46 "Hg10 mi
1:53 am53 °FMostly cloudy.7 mph89%29.45 "Hg10 mi
2:53 am52 °FMostly cloudy.7 mph93%29.41 "Hg10 mi
3:53 am52 °FFog.6 mph89%29.42 "Hg5 mi
4:29 am51 °FFog.8 mph92%29.45 "Hg3 mi
5:14 am42 °FFog.9 mph92%29.46 "Hg1 mi
5:53 am41 °FFog.10 mph89%29.47 "Hg1 mi
6:53 am40 °FFog.8 mph93%29.46 "Hg1 mi
7:53 am41 °FFog.6 mph93%29.46 "Hg1 mi
8:53 am42 °FLight rain. Fog.3 mph89%29.49 "Hg1 mi
10:00 am43 °FLight rain. Fog.21 mph89%29.53 "Hg2 mi
10:28 am42 °FMore clouds than sun.18 mph89%29.56 "Hg7 mi
10:53 am42 °FMostly cloudy.18 mph82%29.58 "Hg10 mi
11:53 am42 °FMostly cloudy.16 mph79%29.61 "Hg10 mi
12:53 pm41 °FMostly cloudy.18 mph80%29.62 "Hg10 mi
1:53 pm40 °FLight rain. Fog.18 mph80%29.65 "Hg9 mi
2:42 pm38 °FLight rain. Mostly cloudy.20 mph83%29.67 "Hg9 mi
3:16 pm38 °FLight rain. Cloudy.23 mph79%29.70 "Hg9 mi
3:53 pm37 °FLight rain. Fog.20 mph79%29.74 "Hg6 mi
4:53 pm34 °FLight snow. Mostly cloudy.17 mph79%29.82 "Hg9 mi
5:22 pm34 °FLight snow. Mostly cloudy.23 mph73%29.83 "Hg8 mi
5:53 pm32 °FLight snow. Mostly cloudy.25 mph75%29.89 "Hg8 mi
6:53 pm33 °FLight snow. Mostly cloudy.29 mph72%29.95 "Hg10 mi
7:53 pm34 °FMostly cloudy.17 mph70%29.98 "Hg10 mi
8:53 pm34 °FMostly cloudy.18 mph70%30.03 "Hg10 mi
9:53 pm34 °FOvercast.13 mph73%30.06 "Hg10 mi
10:53 pm34 °FMostly cloudy.12 mph70%30.08 "Hg10 mi
11:53 pm33 °FPassing clouds.10 mph63%30.09 "Hg10 mi
Weather by CustomWeather, © 2019

See weather overview